Location: Newark
(51.0000°N, 11.4100°E)
Time: 16:13:30
(UTC+00:00)

N. Korean satellite - Visible Passes

Search period start: 21 October 2019 00:00
Search period end: 31 October 2019 00:00
Orbit: 455 x 508 km, 97.2° (Epoch: 20 October)

Date Brightness Start Highest point End Pass type
(mag) Time Alt. Az. Time Alt. Az. Time Alt. Az.
21 Oct 9.7 04:22:41 10° NE 04:25:22 19° E 04:28:05 10° SE visible
22 Oct 10.5 03:58:51 10° ENE 03:59:49 11° E 04:00:48 10° ESE visible
23 Oct 7.4 05:04:47 10° NNE 05:08:22 56° E 05:11:59 10° S visible
23 Oct 10.0 17:19:56 10° SW 17:22:06 16° W 17:24:17 10° NW visible
24 Oct 8.9 04:39:43 10° NNE 04:42:57 29° E 04:46:13 10° SSE visible
24 Oct 8.9 16:53:33 10° SSW 16:56:35 28° W 16:59:40 10° NNW visible
25 Oct 9.9 04:15:02 10° NE 04:17:28 17° E 04:19:54 10° SE visible
26 Oct 10.5 17:39:17 10° W 17:39:43 10° W 17:40:10 10° W visible
27 Oct 7.9 04:56:56 10° NNE 05:00:29 46° E 05:04:04 10° S visible
27 Oct 9.7 17:11:36 10° SW 17:14:08 19° W 17:16:42 10° NW visible
28 Oct 9.2 04:31:57 10° NE 04:35:02 25° E 04:38:09 10° SSE visible
28 Oct 8.5 16:45:26 10° SSW 16:48:37 35° W 16:51:54 10° NNW visible
29 Oct 10.2 04:07:28 10° NE 04:09:31 14° E 04:11:34 10° ESE visible
30 Oct 6.9 05:14:15 10° NNE 05:17:57 74° ESE 05:21:39 10° S visible
30 Oct 10.2 17:30:07 10° WSW 17:31:42 13° W 17:33:19 10° WNW visible
